STARLINK-35989

Last updated on Mon Dec 15 2025 00:02:12 GMT+0000 (Coordinated Universal Time)

1 66819U 25278AE 25348.25003472 -.01415532 00000+0 -73477-2 0 9991 2 66819 42.9975 242.6857 0001762 277.3503 156.4596 15.82615785 3204
UTC large
Height (km)
Speed (km/s)
/
Latitude / Longitude
Inclination (degrees)
Orbital Period (minutes)
Azimuth
Elevation
Range (km)
Doppler Factor

Next 0 passes for location: London (51.5072 / 0.1276)

Sorry there are no passes over London.